Weather History for Quillayute, WA

Change the Weather History Date:

Monday, January 21, 2013

  Actual Average Record
Temperature  
Mean Temperature 38 °F 42 °F  
Max Temperature 53 °F 48 °F 69 °F (2005)
Min Temperature 23 °F 36 °F 17 °F (1969)
Degree Days  
Heating Degree Days 27 23  
Month to date heating degree days 495  
Since 1 July heating degree days 2973  
Cooling Degree Days 0 0  
Month to date cooling degree days 0  
Year to date cooling degree days 0  
Moisture  
Dew Point 28 °F    
Average Humidity 90    
Maximum Humidity 100    
Minimum Humidity 52    
Precipitation  
Precipitation 0.00 in 0.48 in 1.30 in (1970)
Month to date precipitation 10.20  
Year to date precipitation 10.20  
Sea Level Pressure  
Sea Level Pressure 30.17 in    
Wind  
Wind Speed 1 mph (West)    
Max Wind Speed 7 mph    
Max Gust Speed 17 mph    
Visibility 3 miles    
Events Fog    
T = Trace of Precipitation, MM = Missing Value Source: NWS Daily Summary

Daily Weather History Graph

Daily Weather History Graph

Search for Another Location

Airport:

Trip Planner

Search our weather history database for the weather conditions in past years. The results will help you decide how hot, cold, wet, or windy it might be!

Date:

Astronomy

Jan. 21, 2013 Rise Set
Actual Time 7:57 AM PST 5:02 PM PST
Civil Twilight 7:23 AM PST 5:36 PM PST
Nautical Twilight 6:45 AM PST 6:14 PM PST
Astronomical Twilight 6:08 AM PST 6:51 PM PST
Moon 12:44 PM PST 3:32 AM PST
Length of Visible Light 10h 13m
Length of Day
9h 04m
Waxing Gibbous, 76% of the Moon is Illuminated
Jan 21
Waxing Gibbous
Jan 26
Full
Feb 3
Last Quarter
Feb 9
New
Feb 17
First Quarter

Hourly Weather History & Observations

Time (PST) Temp. Windchill Dew Point Humidity Pressure Visibility Wind Dir Wind Speed Gust Speed Precip Events Conditions
12:01 AM 26.6 °F - 24.8 °F 93% 30.22 in 0.5 mi Calm Calm - N/A Fog Light Freezing Fog
12:04 AM 26.6 °F - 26.6 °F 100% 30.22 in 0.2 mi Calm Calm - N/A Fog Light Freezing Fog
12:50 AM 26.6 °F - 24.8 °F 93% 30.22 in 1.0 mi Calm Calm - N/A   Mist
12:51 AM 26.6 °F - 24.8 °F 93% 30.22 in 1.2 mi Calm Calm - N/A   Partly Cloudy
12:53 AM 26.1 °F - 25.0 °F 96% 30.22 in 2.5 mi Calm Calm - N/A   Partly Cloudy
1:00 AM 26.6 °F - 24.8 °F 93% 30.22 in 5.0 mi Calm Calm - N/A   Partly Cloudy
1:10 AM 26.6 °F - 24.8 °F 93% 30.22 in 1.8 mi Calm Calm - N/A   Clear
1:19 AM 26.6 °F - 24.8 °F 93% 30.22 in 1.0 mi Calm Calm - N/A   Clear
1:29 AM 26.6 °F - 26.6 °F 100% 30.22 in 0.2 mi Calm Calm - N/A Fog Light Freezing Fog
1:53 AM 26.1 °F - 25.0 °F 96% 30.24 in 0.2 mi Calm Calm - N/A Fog Light Freezing Fog
2:53 AM 26.1 °F - 25.0 °F 96% 30.23 in 0.2 mi Calm Calm - N/A Fog Light Freezing Fog
3:35 AM 24.8 °F 20.5 °F 24.8 °F 100% 30.20 in 1.2 mi NNE 3.5 mph - N/A   Partly Cloudy
3:38 AM 24.8 °F - 24.8 °F 100% 30.20 in 2.0 mi Calm Calm - N/A   Partly Cloudy
3:53 AM 25.0 °F - 24.1 °F 96% 30.21 in 2.5 mi Calm Calm - N/A   Clear
3:56 AM 24.8 °F - 24.8 °F 100% 30.20 in 1.2 mi Calm Calm - N/A   Clear
4:01 AM 24.8 °F - 23.0 °F 93% 30.20 in 0.2 mi Calm Calm - N/A Fog Light Freezing Fog
4:21 AM 26.6 °F 22.6 °F 24.8 °F 93% 30.18 in 1.0 mi NE 3.5 mph - N/A   Clear
4:24 AM 26.6 °F - 26.6 °F 100% 30.18 in 3.0 mi Calm Calm - N/A   Clear
4:53 AM 24.1 °F - 23.0 °F 96% 30.18 in 4.0 mi Calm Calm - N/A   Clear
5:53 AM 25.0 °F - 25.0 °F 100% 30.17 in 5.0 mi Calm Calm - N/A   Clear
6:53 AM 24.1 °F - 23.0 °F 96% 30.17 in 4.0 mi Calm Calm - N/A   Clear
7:53 AM 25.0 °F - 24.1 °F 96% 30.16 in 5.0 mi Calm Calm - N/A   Clear
8:53 AM 28.0 °F - 27.0 °F 96% 30.17 in 4.0 mi Calm Calm - N/A   Clear
9:53 AM 33.1 °F - 33.1 °F 100% 30.19 in 5.0 mi Calm Calm - N/A   Clear
10:53 AM 39.9 °F - 35.1 °F 83% 30.19 in 5.0 mi Calm Calm - N/A   Haze
11:53 AM 45.0 °F - 37.0 °F 74% 30.17 in 5.0 mi Calm Calm - N/A   Haze
12:53 PM 48.9 °F - 37.9 °F 66% 30.14 in 5.0 mi Calm Calm - N/A   Haze
1:53 PM 52.0 °F - 36.0 °F 54% 30.11 in 5.0 mi SW 3.5 mph - N/A   Haze
2:53 PM 50.0 °F - 33.1 °F 52% 30.10 in 5.0 mi WSW 4.6 mph - N/A   Haze
3:53 PM 46.9 °F - 36.0 °F 66% 30.12 in 4.0 mi WSW 5.8 mph - N/A   Haze
4:53 PM 39.9 °F - 35.1 °F 83% 30.11 in - Calm Calm - N/A   Clear
5:53 PM 34.0 °F - 30.9 °F 89% 30.11 in 5.0 mi Calm Calm - N/A   Clear
6:53 PM 30.9 °F - 30.0 °F 96% 30.12 in 5.0 mi Calm Calm - N/A   Clear
7:53 PM 30.9 °F - 30.0 °F 96% 30.10 in 5.0 mi Calm Calm - N/A   Clear
8:53 PM 28.0 °F - 27.0 °F 96% 30.09 in 4.0 mi Calm Calm - N/A   Clear
9:53 PM 28.9 °F - 27.0 °F 92% 30.09 in 5.0 mi Calm Calm - N/A   Clear
10:53 PM 32.0 °F - 30.0 °F 92% 30.08 in 5.0 mi Calm Calm - N/A   Clear
11:53 PM 30.0 °F - 28.0 °F 92% 30.07 in 6.0 mi Calm Calm - N/A   Clear